{"data":{"norad_id":60303,"intl_designator":"2024-133C","name":"STARLINK-11227 [DTC]","alt_names":[],"object_type":"PAYLOAD","status":"ACTIVE","operator":null,"country":"US","launch_date":"2024-07-28","launch_site_code":"AFWTR","launch_vehicle":null,"mission":null,"orbit_class":"UNKNOWN","rcs_meters":null,"size_class":null,"mass_kg":null,"dimensions":null,"purposes":["comms"],"wikipedia_slug":null,"has_3d_model":false,"image_url":null,"decayed_at":null,"tle_current":{"epoch":"2026-05-25T05:25:52.612896Z","epoch_age_seconds":52334,"freshness":"FRESH","line1":"1 60303U 24133C   26145.22630339  .00000336  00000+0  76339-5 0  9995","line2":"2 60303  53.1603 129.0301 0001201 101.4146 258.7007 15.69698042105835","mean_motion":15.69698042,"eccentricity":0.0001201,"inclination_deg":53.1603,"raan_deg":129.0301,"arg_perigee_deg":101.4146,"mean_anomaly_deg":258.7007,"bstar":7.6339e-6,"rev_number":10583,"period_min":91.737389069126,"perigee_km":358.95174830956,"apogee_km":360.57019140192,"semimajor_km":6737.8979698557,"source":"CELESTRAK","updated_at":"2026-05-25T13:38:19.227920Z"}}}